Location: Czekan�w
(50.3488°N, 18.7344°E)
Time: 05:52:22
(UTC+00:00)

STARLINK-1129 - Pass Details

Date: 17 February 2020
Orbit: 548 x 551 km, 53.0° (Epoch: 28 March)

Event Time Altitude Azimuth Distance (km) Brightness Sun altitude
Exits shadow 03:46:29 54° 317° (NW) 672 3.8 -20.9°
Maximum altitude 03:47:01 60° 354° (N) 633 3.8 -20.8°
Drops below altitude 10° 03:51:09 10° 75° (ENE) 1,831 7.4 -20.2°
Sets 03:53:24 0° 79° (E) 2,726 8.8 -19.8°
